User: anonymous   Login
Location: Burgerwiesen
(48.6500°N, 15.6167°E)
Time: 17:02:21
(UTC+00:00)
Language:

Cosmos 1408 - Orbit

View from above orbital plane
View from above orbital plane
View from above satellite
View from above satellite

Ground track
Ground track

The orbit data is extracted from the following two-line orbital elements,

1 13552U 82092A   20196.13932802  .00000509  00000-0  17259-4 0  9995
2 13552  82.5669 251.6382 0019046  44.2762 315.9997 15.27855737 68452
Epoch (UTC): 14 July 2020 03:20:37
Eccentricity: 0.0019046
inclination: 82.5669°
perigee height: 469 km
apogee height: 495 km
right ascension of ascending node: 251.6382°
argument of perigee: 44.2762°
revolutions per day: 15.27855737
mean anomaly at epoch: 315.9997°
orbit number at epoch: 6845

The dashed part of the orbit path shows where the satellite is in the earth's shadow,  

DLR